Home   Weather   Messina   Past weeks

Flag for Italy Past Weather in Messina, Italy — Yesterday and Last 2 Weeks

Now
59 °F

Passing clouds.


Feels Like: 57 °F
Forecast: 56 / 62 °F
Wind: 12 mph from North

Location: Reggio Calabria

Current Time: Dec 2, 2016 at 7:05:48 pm

Latest Report: Dec 2, 2016 at 5:50 pm


Visibility: N/A

Pressure: 30.07 "Hg

Humidity: 59%

Dew Point: 45 °F

Location of MessinaLocation

Past Weather in Messina — Graph

°F

Messina Temperature Yesterday

Maximum temperature yesterday: 61 °F (at 11:50 am)
Minimum temperature yesterday: 55 °F (at 6:00 am)
Average temperature yesterday: 58 °F

High & Low Weather Summary for the Past Weeks

 TemperatureHumidityPressure
High72 °F (Nov 19, 12:50 pm)94% (Nov 18, 6:50 pm)30.30 "Hg (Nov 18, 6:50 pm)
Low48 °F (Nov 30, 6:50 am)36% (Nov 30, 2:50 pm)29.77 "Hg (Nov 28, 6:00 am)
Average62 °F67%30.05 "Hg
* Reported Nov 17 5:50 pm — Dec 2 5:50 pm, Messina, Weather by CustomWeather, © 2016

Note: Actual official high and low records may vary slightly from our data, if they occured in-between our weather recording intervals... More about our weather records

Advertising

Messina Weather History for the Previous 24 Hours

Scroll right to see more
 ConditionsComfort  
Time TempWeatherWind HumidityBarometerVisibility
5:50 pm
Fri, Dec 2
59 °FPassing clouds.12 mph59%30.07 "HgN/A
4:50 pm59 °FPassing clouds.13 mph55%30.04 "HgN/A
3:50 pm63 °FPassing clouds.14 mph56%30.04 "HgN/A
2:50 pm61 °FScattered clouds.12 mph59%30.04 "HgN/A
1:50 pm63 °FPassing clouds.13 mph52%30.04 "HgN/A
12:50 pm63 °FScattered clouds.15 mph49%30.07 "HgN/A
11:50 am63 °FPassing clouds.15 mph56%30.07 "HgN/A
10:50 am61 °FScattered clouds.15 mph59%30.09 "HgN/A
9:50 am61 °FScattered clouds.12 mph55%30.09 "HgN/A
8:50 am59 °FScattered clouds.10 mph59%30.09 "HgN/A
7:50 am59 °FScattered clouds.12 mph55%30.09 "HgN/A
6:50 am57 °FPassing clouds.10 mph59%30.09 "HgN/A
6:00 am57 °FPassing clouds.10 mph55%30.09 "HgN/A
11:50 pm
Thu, Dec 1
57 °FPassing clouds.13 mph51%30.15 "HgN/A
10:50 pm55 °FPassing clouds.10 mph59%30.18 "HgN/A
9:50 pm55 °FPassing clouds.10 mph55%30.18 "HgN/A
8:50 pm57 °FPassing clouds.9 mph55%30.18 "HgN/A
7:50 pm57 °FPassing clouds.10 mph55%30.18 "HgN/A
Weather by CustomWeather, © 2016

See weather overviewHow to use our weather pages